Weather History for Whiting Fld NAS, FL

Change the Weather History Date:

Wednesday, October 2, 2013

  Actual Average Record
Temperature  
Mean Temperature 76 °F -  
Max Temperature 82 °F 80 °F 89 °F (2006)
Min Temperature 71 °F 62 °F 46 °F (2011)
Cooling Degree Days 11    
Growing Degree Days 26 (Base 50)    
Moisture  
Dew Point 68 °F    
Average Humidity 79    
Maximum Humidity 87    
Minimum Humidity 65    
Precipitation  
Precipitation 0.00 in - - ()
Sea Level Pressure  
Sea Level Pressure 30.02 in    
Wind  
Wind Speed 5 mph (ENE)    
Max Wind Speed 9 mph    
Max Gust Speed -    
Visibility 10 miles    
Events Rain    
Averages and records for this station are not official NWS values.
T = Trace of Precipitation, MM = Missing Value Source: NWS Daily Summary

Daily Weather History Graph

Daily Weather History Graph

Search for Another Location

Airport:

Trip Planner

Search our weather history database for the weather conditions in past years. The results will help you decide how hot, cold, wet, or windy it might be!

Date:

Astronomy

Oct. 02, 2013 Rise Set
Actual Time 6:42 AM CDT 6:31 PM CDT
Civil Twilight 6:18 AM CDT 6:55 PM CDT
Nautical Twilight 5:50 AM CDT 7:23 PM CDT
Astronomical Twilight 5:22 AM CDT 7:51 PM CDT
Moon 4:22 AM CDT (10/2) 5:01 PM CDT (10/2)
Length of Visible Light 12h 37m
Length of Day
11h 49m
Waning Crescent, 6% of the Moon is Illuminated
Oct 2
Waning Crescent
Oct 4
New
Oct 11
First Quarter
Oct 18
Full
Oct 26
Last Quarter

Hourly Weather History & Observations

Time (CDT) Temp. Heat Index Dew Point Humidity Pressure Visibility Wind Dir Wind Speed Gust Speed Precip Events Conditions
12:56 AM 72.0 °F - 66.0 °F 81% 30.02 in 10.0 mi NE 4.6 mph - N/A   Scattered Clouds
1:56 AM 72.0 °F - 66.0 °F 81% 30.01 in 10.0 mi East 4.6 mph - N/A   Mostly Cloudy
2:56 AM 72.0 °F - 66.0 °F 81% 30.00 in 10.0 mi ENE 3.5 mph - N/A   Mostly Cloudy
3:56 AM 71.1 °F - 66.9 °F 87% 29.99 in 10.0 mi ENE 5.8 mph - N/A   Mostly Cloudy
4:56 AM 71.1 °F - 66.0 °F 84% 29.99 in 10.0 mi ENE 5.8 mph - N/A   Clear
5:56 AM 71.1 °F - 66.0 °F 84% 30.00 in 10.0 mi ENE 3.5 mph - N/A   Mostly Cloudy
6:56 AM 71.1 °F - 66.0 °F 84% 30.01 in 10.0 mi NE 4.6 mph - N/A   Mostly Cloudy
7:56 AM 71.1 °F - 66.0 °F 84% 30.02 in 10.0 mi ENE 5.8 mph - N/A   Mostly Cloudy
8:56 AM 75.0 °F - 66.9 °F 76% 30.04 in 10.0 mi East 8.1 mph - N/A   Mostly Cloudy
9:56 AM 75.9 °F - 68.0 °F 76% 30.05 in 10.0 mi East 5.8 mph - N/A   Mostly Cloudy
10:56 AM 75.9 °F - 70.0 °F 82% 30.05 in 9.0 mi ESE 4.6 mph - 0.00 in Rain Light Rain
11:46 AM 75.2 °F - 69.8 °F 83% 30.08 in 10.0 mi NE 3.5 mph - 0.00 in   Overcast
11:56 AM 75.0 °F - 70.0 °F 84% 30.04 in 10.0 mi Calm Calm - 0.00 in Rain Light Rain
12:56 PM 78.1 °F - 71.1 °F 79% 30.03 in 10.0 mi ENE 5.8 mph - 0.00 in   Overcast
1:56 PM 79.0 °F - 70.0 °F 74% 30.01 in 10.0 mi ENE 6.9 mph - 0.00 in Rain Light Rain
2:56 PM 80.1 °F 83.2 °F 70.0 °F 71% 29.99 in 10.0 mi East 8.1 mph - 0.00 in   Mostly Cloudy
3:56 PM 81.0 °F 83.8 °F 68.0 °F 65% 29.99 in 10.0 mi ESE 9.2 mph - N/A   Mostly Cloudy
4:56 PM 78.1 °F - 69.1 °F 74% 30.00 in 10.0 mi ESE 8.1 mph - N/A   Mostly Cloudy
5:56 PM 77.0 °F - 69.1 °F 76% 29.99 in 10.0 mi ENE 5.8 mph - N/A   Mostly Cloudy
6:56 PM 75.0 °F - 68.0 °F 79% 29.99 in 10.0 mi East 4.6 mph - N/A   Mostly Cloudy
7:56 PM 73.9 °F - 66.9 °F 79% 30.01 in 10.0 mi ENE 4.6 mph - N/A   Mostly Cloudy
8:56 PM 73.9 °F - 66.9 °F 79% 30.02 in 10.0 mi ENE 4.6 mph - N/A   Mostly Cloudy
9:56 PM 73.9 °F - 66.0 °F 76% 30.03 in 10.0 mi East 5.8 mph - N/A   Overcast
10:56 PM 73.9 °F - 66.0 °F 76% 30.03 in 10.0 mi East 4.6 mph - N/A   Mostly Cloudy
11:56 PM 73.9 °F - 66.0 °F 76% 30.01 in 10.0 mi East 5.8 mph - N/A   Mostly Cloudy